Regional Weather Roundup
Issued by NWS

Home | Current Version | Previous Version | Text Only | Print | Product List | Glossary Off
Versions: 1 2 3 4 5 6 7 8 9 10 11 12 13 14 15 16 17 18 19 20 21 22 23 24 25 26 27 28 29 30 31 32 33 34 35 36 37 38 39 40 41 42 43 44 45 46 47 48 49 50

000
ASUS43 KOAX 290102
RWRNE

WEATHER ROUNDUP FOR NEBRASKA
NATIONAL WEATHER SERVICE OMAHA NE
800 PM CDT THU APR 28 2016

NOTES: SATELLITE DATA IS BEING USED TO AUGMENT CLOUD COVER ABOVE
       12000 FEET.
       "FAIR" INDICATES FEW OR NO CLOUDS BELOW 12,000 FEET WITH NO
       SIGNIFICANT WEATHER AND/OR OBSTRUCTIONS TO VISIBILITY.

  * THESE STATIONS DO NOT REPORT WEATHER SUCH AS RAIN...SNOW OR FOG.

NEZ001>004-019>022-054>056-290200-
NEBRASKA PANHANDLE

CITY           SKY/WX    TMP DP  RH WIND       PRES   REMARKS
SCOTTSBLUFF    CLOUDY    38  34  85 E3        30.06S
ALLIANCE       LGT SNOW  32  32 100 W3        30.06R FOG
CHADRON        CLOUDY    41  35  79 NE9       30.08S
KIMBALL        CLOUDY    37  32  82 E6        30.04R WCI  32
SIDNEY         CLOUDY    40  33  76 NE6       30.05R
$$

NEZ057>060-069>072-079>082-290200-
SOUTHWEST NEBRASKA

CITY           SKY/WX    TMP DP  RH WIND       PRES   REMARKS
NORTH PLATTE   CLOUDY    44  38  79 NW3       30.05R
IMPERIAL       CLOUDY    45  37  73 N5        30.05R
LEXINGTON      CLOUDY    46  41  83 N6        30.04S
MCCOOK         CLOUDY    47  38  71 N8        30.05R
$$

NEZ005>010-023>029-035>040-094-290200-
NORTH CENTRAL NEBRASKA

CITY           SKY/WX    TMP DP  RH WIND       PRES   REMARKS
VALENTINE      CLOUDY    40  36  86 NW8       30.09R FOG     WCI  34
BROKEN BOW     LGT RAIN  44  39  82 N8        30.04R
ORD            CLOUDY    45  39  79 N10       30.04S
$$

NEZ041-046>049-061>064-073>077-083>087-290200-
SOUTH CENTRAL NEBRASKA

CITY           SKY/WX    TMP DP  RH WIND       PRES   REMARKS
GRAND ISLAND   CLOUDY    46  40  79 N13       30.04S
AURORA         CLOUDY    47  42  83 N13       30.04R
HASTINGS       CLOUDY    48  40  73 N12       30.03S
KEARNEY *      CLOUDY    46  39  76 NE10      30.05R
YORK           CLOUDY    46  41  81 N14       30.05R
$$

NEZ011>018-030>034-042>045-290200-
NORTHEAST NEBRASKA

CITY           SKY/WX    TMP DP  RH WIND       PRES   REMARKS
NORFOLK        CLOUDY    43  38  82 NW8       30.06R
ALBION         CLOUDY    43  39  84 N6        30.06S
BLAIR          CLOUDY    46  42  84 N10       30.02R
COLUMBUS *     CLOUDY    45  34  65 NW12      30.06R
FREMONT        CLOUDY    46  41  85 N6        30.04R
TEKAMAH        CLOUDY    46  40  79 N14       30.04S
$$

NEZ050>053-065>068-078-088>093-290200-
SOUTHEAST NEBRASKA

CITY           SKY/WX    TMP DP  RH WIND       PRES   REMARKS
LINCOLN        CLOUDY    50  40  68 N9        30.04R
OMAHA EPPLEY   CLOUDY    47  42  83 N15       30.02S
FALLS CITY     CLOUDY    52  42  69 N7        30.02R
$$

NEZ044-045-051>053-067-290200-
OMAHA AREA

CITY           SKY/WX    TMP DP  RH WIND       PRES   REMARKS
OMAHA EPPLEY   CLOUDY    47  42  83 N15       30.02S
BLAIR          CLOUDY    46  42  84 N10       30.02R
FREMONT        CLOUDY    46  41  85 N6        30.04R
$$




USA.gov is the U.S. government's official web portal to all federal, state and local government web resources and services.